TimeCDT,TemperatureF,Dew PointF,Humidity,Sea Level PressureIn,VisibilityMPH,Wind Direction,Wind SpeedMPH,Gust SpeedMPH,PrecipitationIn,Events,Conditions,WindDirDegrees,DateUTC
12:15 AM,64.4,60.8,88,30.05,10.0,Calm,Calm,-,N/A,,Clear,0,2013-07-04 05:15:00
12:35 AM,64.4,60.8,88,30.05,10.0,Calm,Calm,-,N/A,,Clear,0,2013-07-04 05:35:00
12:55 AM,64.4,60.8,88,30.04,10.0,Calm,Calm,-,N/A,,Clear,0,2013-07-04 05:55:00
1:15 AM,68.0,60.8,78,30.04,10.0,NW,3.5,-,N/A,,Clear,310,2013-07-04 06:15:00
1:35 AM,64.4,60.8,88,30.04,10.0,North,3.5,-,N/A,,Clear,360,2013-07-04 06:35:00
1:55 AM,64.4,62.6,94,30.03,10.0,North,3.5,-,N/A,,Clear,360,2013-07-04 06:55:00
2:15 AM,64.4,60.8,88,30.03,10.0,North,3.5,-,N/A,,Clear,350,2013-07-04 07:15:00
2:35 AM,64.4,62.6,94,30.03,10.0,NNW,4.6,-,N/A,,Clear,340,2013-07-04 07:35:00
2:55 AM,64.4,62.6,94,30.03,7.0,NE,3.5,-,N/A,,Clear,40,2013-07-04 07:55:00
3:15 AM,64.4,62.6,94,30.03,10.0,NNE,5.8,-,N/A,,Clear,30,2013-07-04 08:15:00
3:35 AM,64.4,62.6,94,30.03,10.0,Calm,Calm,-,N/A,,Clear,0,2013-07-04 08:35:00
3:55 AM,64.4,62.6,94,30.02,10.0,Calm,Calm,-,N/A,,Clear,0,2013-07-04 08:55:00
4:15 AM,66.2,62.6,88,30.03,7.0,Calm,Calm,-,N/A,,Clear,0,2013-07-04 09:15:00
4:35 AM,64.4,60.8,88,30.03,10.0,Calm,Calm,-,N/A,,Clear,0,2013-07-04 09:35:00
4:55 AM,64.4,62.6,94,30.03,10.0,Calm,Calm,-,N/A,,Clear,0,2013-07-04 09:55:00
5:15 AM,64.4,62.6,94,30.03,7.0,Calm,Calm,-,N/A,,Clear,0,2013-07-04 10:15:00
5:35 AM,62.6,60.8,94,30.03,5.0,Calm,Calm,-,N/A,,Clear,0,2013-07-04 10:35:00
5:55 AM,64.4,60.8,88,30.03,7.0,Calm,Calm,-,N/A,,Clear,0,2013-07-04 10:55:00
6:15 AM,62.6,60.8,94,30.04,7.0,Calm,Calm,-,N/A,,Clear,0,2013-07-04 11:15:00
6:35 AM,62.6,60.8,94,30.04,5.0,Calm,Calm,-,N/A,,Clear,0,2013-07-04 11:35:00
6:55 AM,64.4,62.6,94,30.04,4.0,Calm,Calm,-,N/A,,Clear,0,2013-07-04 11:55:00
7:15 AM,68.0,64.4,88,30.04,5.0,Calm,Calm,-,N/A,,Scattered Clouds,0,2013-07-04 12:15:00
7:35 AM,68.0,64.4,88,30.04,7.0,Calm,Calm,-,N/A,,Scattered Clouds,0,2013-07-04 12:35:00
7:55 AM,69.8,64.4,83,30.04,7.0,Calm,Calm,-,N/A,,Scattered Clouds,0,2013-07-04 12:55:00
8:15 AM,69.8,64.4,83,30.05,10.0,Calm,Calm,-,N/A,,Clear,0,2013-07-04 13:15:00
8:35 AM,71.6,64.4,78,30.06,10.0,Calm,Calm,-,N/A,,Scattered Clouds,0,2013-07-04 13:35:00
8:55 AM,73.4,64.4,73,30.06,10.0,Calm,Calm,-,N/A,,Scattered Clouds,0,2013-07-04 13:55:00
9:15 AM,73.4,66.2,78,30.06,10.0,Calm,Calm,-,N/A,,Scattered Clouds,0,2013-07-04 14:15:00
9:35 AM,77.0,66.2,69,30.05,10.0,Calm,Calm,-,N/A,,Scattered Clouds,0,2013-07-04 14:35:00
9:55 AM,78.8,66.2,65,30.05,10.0,Calm,Calm,-,N/A,,Clear,0,2013-07-04 14:55:00
10:15 AM,78.8,66.2,65,30.05,10.0,Calm,Calm,-,N/A,,Clear,0,2013-07-04 15:15:00
10:35 AM,80.6,64.4,58,30.05,10.0,North,4.6,-,N/A,,Clear,360,2013-07-04 15:35:00
10:55 AM,82.4,64.4,54,30.05,10.0,North,4.6,-,N/A,,Clear,350,2013-07-04 15:55:00
11:15 AM,82.4,64.4,54,30.05,10.0,NNW,6.9,-,N/A,,Clear,340,2013-07-04 16:15:00
11:35 AM,84.2,59.0,42,30.04,10.0,NNW,3.5,-,N/A,,Clear,340,2013-07-04 16:35:00
11:55 AM,86.0,55.4,35,30.04,10.0,North,4.6,-,N/A,,Clear,10,2013-07-04 16:55:00
12:15 PM,86.0,59.0,40,30.04,10.0,NE,4.6,-,N/A,,Clear,40,2013-07-04 17:15:00
12:35 PM,86.0,57.2,37,30.04,10.0,NNE,4.6,-,N/A,,Clear,30,2013-07-04 17:35:00
12:55 PM,86.0,55.4,35,30.03,10.0,North,6.9,-,N/A,,Clear,10,2013-07-04 17:55:00
1:15 PM,86.0,59.0,40,30.02,10.0,NE,5.8,-,N/A,,Clear,40,2013-07-04 18:15:00
1:35 PM,87.8,60.8,40,30.02,10.0,NE,10.4,-,N/A,,Clear,50,2013-07-04 18:35:00
1:55 PM,86.0,59.0,40,30.01,10.0,NE,8.1,-,N/A,,Clear,40,2013-07-04 18:55:00
2:15 PM,89.6,59.0,36,30.00,10.0,NE,5.8,-,N/A,,Clear,40,2013-07-04 19:15:00
2:35 PM,87.8,59.0,38,30.00,10.0,NNW,5.8,-,N/A,,Clear,340,2013-07-04 19:35:00
2:55 PM,87.8,59.0,38,29.99,10.0,NNW,4.6,-,N/A,,Clear,330,2013-07-04 19:55:00
3:15 PM,87.8,59.0,38,29.98,10.0,WNW,5.8,-,N/A,,Clear,300,2013-07-04 20:15:00
3:35 PM,87.8,59.0,38,29.98,10.0,NE,9.2,-,N/A,,Clear,40,2013-07-04 20:35:00
3:55 PM,86.0,59.0,40,29.98,10.0,NE,5.8,-,N/A,,Scattered Clouds,40,2013-07-04 20:55:00
4:15 PM,86.0,59.0,40,29.97,10.0,NW,4.6,-,N/A,,Clear,320,2013-07-04 21:15:00
4:35 PM,87.8,62.6,43,29.96,10.0,NNE,6.9,-,N/A,,Scattered Clouds,30,2013-07-04 21:35:00
4:55 PM,87.8,60.8,40,29.96,10.0,North,9.2,-,N/A,,Scattered Clouds,350,2013-07-04 21:55:00
5:15 PM,87.8,60.8,40,29.96,10.0,North,3.5,-,N/A,,Scattered Clouds,360,2013-07-04 22:15:00
5:35 PM,86.0,60.8,43,29.96,10.0,NE,9.2,-,N/A,,Mostly Cloudy,50,2013-07-04 22:35:00
5:55 PM,86.0,60.8,43,29.96,10.0,NE,6.9,-,N/A,,Scattered Clouds,40,2013-07-04 22:55:00
6:15 PM,86.0,62.6,45,29.96,10.0,NNE,4.6,-,N/A,,Clear,30,2013-07-04 23:15:00
6:35 PM,86.0,62.6,45,29.96,10.0,NNW,4.6,-,N/A,,Scattered Clouds,340,2013-07-04 23:35:00
6:55 PM,86.0,62.6,45,29.96,10.0,NE,6.9,-,N/A,,Mostly Cloudy,50,2013-07-04 23:55:00
7:15 PM,86.0,60.8,43,29.96,10.0,ENE,4.6,-,N/A,,Scattered Clouds,60,2013-07-05 00:15:00
7:35 PM,84.2,60.8,45,29.97,10.0,NE,3.5,-,N/A,,Clear,50,2013-07-05 00:35:00
7:55 PM,82.4,62.6,51,29.96,10.0,Calm,Calm,-,N/A,,Clear,0,2013-07-05 00:55:00
8:15 PM,82.4,64.4,54,29.96,10.0,Calm,Calm,-,N/A,,Clear,0,2013-07-05 01:15:00
8:35 PM,80.6,64.4,58,29.97,10.0,NE,3.5,-,N/A,,Clear,40,2013-07-05 01:35:00
8:55 PM,78.8,68.0,69,29.98,10.0,East,9.2,-,N/A,,Scattered Clouds,100,2013-07-05 01:55:00
9:15 PM,78.8,68.0,69,29.98,10.0,East,8.1,-,N/A,,Scattered Clouds,100,2013-07-05 02:15:00
9:35 PM,77.0,68.0,74,29.98,10.0,East,9.2,-,N/A,,Clear,100,2013-07-05 02:35:00
9:55 PM,77.0,68.0,74,29.99,10.0,East,6.9,-,N/A,,Clear,100,2013-07-05 02:55:00
10:15 PM,77.0,68.0,74,30.00,10.0,ESE,4.6,-,N/A,,Clear,110,2013-07-05 03:15:00
10:35 PM,75.2,68.0,78,30.00,10.0,East,4.6,-,N/A,,Clear,100,2013-07-05 03:35:00
10:55 PM,75.2,68.0,78,30.01,10.0,ESE,4.6,-,N/A,,Clear,110,2013-07-05 03:55:00
11:15 PM,73.4,68.0,83,30.01,10.0,East,5.8,-,N/A,,Clear,80,2013-07-05 04:15:00
11:35 PM,73.4,68.0,83,30.01,10.0,East,5.8,-,N/A,,Clear,90,2013-07-05 04:35:00
11:55 PM,73.4,68.0,83,30.01,10.0,East,5.8,-,N/A,,Clear,100,2013-07-05 04:55:00